Погода в Боромле

Украина / Сумская область     50°37′37″N   34°58′23″E
темп.,
°C
ветер,
м/с
пор.,
м/с
влажн.,
%
обл.,
%
осадки,
мм/ч
давл.,
гПа
погр.,
м
26 сентября, вс
вс2600:00+11зюз51385100 0.6 1011610
03:00+12з61392100 0.8 1010688
06:00+12зсз5129054 0.3 1010571
09:00+11сз71284100 0.4 1012961
12:00+11сз61077100 0.1 10141157
15:00+11сз71169100 0.1 10151304
18:00+11сз7127421 0.0 1015915
21:00+9сз512765 0.0 1016631
27 сентября, пн
пн2700:00+7сз511895 0.0 1017460
03:00+6ссз5119444 0.0 1018396
06:00+5сз499647 0.0 1019247
09:00+9с688187 0.0 1020588
12:00+12с5668100 0.0 1020998
15:00+13с666284 0.1 10201271
18:00+11с367387 0.1 1021174
21:00+10с388234 0.1 1021299
28 сентября, вт
вт2800:00+7ссв359015 0.0 1022110
03:00+7с3686100 0.0 1022184
06:00+8с388998 0.0 1022304
09:00+9с4786100 0.0 1023411
12:00+10св4678100 0.1 1024679
15:00+10св5775100 0.2 1025606
18:00+9св597598 0.0 1027582
21:00+7всв597977 0.0 1029598
29 сентября, ср
ср2900:00+7св4881100 0.0 1030582
03:00+7св4778100 0.0 1030498
06:00+6св4775100 0.0 1031455
09:00+8всв57676 0.0 1033597
12:00+11всв56445 0.0 10331355
15:00+12св45395 0.0 10321477
18:00+10св36500 0.0 1032114
21:00+7св37605 0.0 1033136
30 сентября, чт
чт3000:00+5всв3565100 0.0 103492
03:00+4всв337035 0.0 103447
06:00+4всв337389 0.0 103452
09:00+7всв3459100 0.0 1035269
12:00+11в34435 0.0 10341073
15:00+13всв333992 0.0 10331420
18:00+10св225092 0.0 103320
21:00+7всв34604 0.0 103457